Погода в Черёмушке

Россия / Республика Хакасия     54°27′38″N   91°00′04″E
темп.,
°C
ветер,
м/с
пор.,
м/с
влажн.,
%
обл.,
%
осадки,
мм/ч
давл.,
гПа
погр.,
м
24 января, пн
пн2401:00−22юв01100100 0.0 103710
04:00−21зсз0199100 0.0 10369
07:00−23зсз1199100 0.0 10379
10:00−23зсз119959 0.0 10389
13:00−16зюз019370 0.0 1038100
16:00−17ююв119865 0.0 10389
19:00−24юв1110082 0.1 10419
22:00−26юв1110099 0.0 104211
25 января, вт
вт2501:00−23юв22100100 0.1 104132
04:00−21юв22100100 0.1 104069
07:00−21юв22100100 0.1 103944
10:00−22юв2210099 0.1 103834
13:00−18юв2296100 0.1 1036178
16:00−18юв2297100 0.0 1035118
19:00−20юв1199100 0.0 103524
22:00−17юв2297100 0.1 103575
26 января, ср
ср2601:00−17юв2298100 0.4 103448
04:00−16юв2298100 0.3 103456
07:00−17юв2298100 0.4 103440
10:00−16юв2297100 0.1 103484
13:00−13юв2393100 0.1 1033206
16:00−13вюв2295100 0.0 1032115
19:00−14вюв1197100 0.3 103218
22:00−15в0197100 0.0 10339
27 января, чт
чт2701:00−16зсз009899 0.0 10339
04:00−18сз119899 0.0 10359
07:00−18сз119898 0.0 10369
10:00−17сз119785 0.0 103717
13:00−13ссз1190100 0.0 1037106
16:00−14ссз119473 0.0 10389
19:00−20ссз11100100 0.0 104010
22:00−20сз11100100 0.0 104110
28 января, пт
пт2801:00−20сз2110094 0.0 104110
04:00−20зсз1199100 0.1 104114
07:00−20зсз2199100 0.1 104118
10:00−18зсз119899 0.1 104137
13:00−15сз119394 0.1 1039129
16:00−16зсз009749 0.0 10399
19:00−22сз1110078 0.0 10409
22:00−24сз1110097 0.0 10409